Find SPOT 5

NORAD ID: 27421 Int'l Des: 2002-021 Owner: CNES Country: F operational
LEORETROGRADESSO

Live Position

Loading 3D Globe...

About SPOT 5

Description loading...

Upcoming Passes

Passes for default location (London). Set your location on the main map for personalized predictions.

Altitude History

Loading altitude history...

Two-Line Element Set

1 27421U 02021A 26104.82327602 .00000275 00000-0 67363-4 0 9997
2 27421 97.9918 146.4774 0131002 113.3682 248.1359 14.54698319253636
Epoch: Apr 14, 2026 • Age: 7 hours

Current Status

Altitude 632.9 km
Velocity 7.60 km/s
Sub-Earth Point 77.70°N, 121.12°E
Launch Date May 4, 2002
Age 23.9 years
Type earth observation

Technical Details

Classification Payload
Mass 3000.00 kg
Dry Mass 2850.00 kg
Total Mass 3000.00 kg
Length 5.70 m
Diameter 3.10 m
Span 10.00 m
Shape Box + Pan
Manufacturer ASTT
Bus Type SPOT
Phase Status In Orbit
Owner/State CNES/F

Most Searched